Lid_Strength_Index
8 9 10 11 12 12 12 12 12 12 12 13 13 13 13 13 13 13 14 14 14 15 15 14 14 14 14 14 14 13 14 13 12 13 12 11 8 8 7 6 6 5 5
9 9 10 12 13 13 13 13 13 12 13 13 13 13 14 13 13 13 14 14 15 15 15 15 15 14 14 14 14 14 14 14 13 14 13 12 10 6 7 7 7 6 5
9 10 12 12 13 13 13 13 13 13 13 13 14 14 14 14 15 14 14 14 15 15 15 15 15 14 14 14 14 14 14 15 13 13 14 13 13 12 9 8 8 7 5
10 10 12 12 13 13 12 13 13 13 13 13 14 15 15 15 14 15 14 15 15 15 15 15 15 15 14 15 14 15 14 14 15 13 13 12 12 14 14 10 9 8 8
10 11 12 12 12 13 13 13 13 13 14 14 14 15 15 15 14 15 16 16 15 15 15 15 15 15 15 15 15 15 15 14 14 14 14 14 14 13 15 16 12 9 7
10 10 11 12 12 13 13 12 13 14 13 14 14 15 15 15 16 16 17 16 16 16 16 16 16 15 15 15 15 15 15 15 14 14 14 15 16 14 14 14 13 13 11
11 11 12 13 13 14 14 13 14 14 14 14 15 15 15 16 16 17 17 17 17 17 16 16 16 16 16 16 15 15 15 15 15 15 14 14 14 13 14 15 16 15 13
11 11 12 12 13 14 14 14 14 14 14 15 15 15 16 16 17 17 17 18 17 17 17 17 17 17 16 16 16 16 16 15 15 15 15 14 14 14 14 15 16 16 15
11 12 12 12 13 15 14 14 14 14 14 15 15 16 16 17 18 18 18 18 18 18 18 17 18 17 17 16 16 16 16 16 15 15 15 15 14 14 14 14 14 16 18
11 12 12 13 14 14 14 14 13 14 14 15 16 16 17 18 18 18 19 18 18 18 18 18 18 18 17 17 17 17 16 17 16 16 16 16 15 15 14 14 13 13 13
10 11 12 13 14 14 14 14 14 14 15 16 17 17 18 19 19 19 19 19 19 19 19 19 19 18 18 17 18 18 18 18 18 17 17 17 16 16 15 13 12 13 14
10 11 13 14 15 15 15 15 14 15 16 17 18 18 19 19 20 20 19 19 19 19 19 19 19 19 19 18 19 19 18 19 19 18 18 17 16 17 15 13 13 14 14
11 12 13 15 15 15 15 15 15 16 17 18 19 20 20 20 20 20 20 20 20 20 20 20 20 20 20 19 19 19 19 19 19 18 17 17 17 16 14 13 15 14 14
12 11 13 14 15 15 16 16 16 17 19 20 20 20 20 20 20 21 21 21 21 21 21 20 20 20 20 19 19 19 19 19 18 17 16 16 15 14 13 14 15 14 15
12 12 13 14 15 16 17 17 18 19 20 21 21 21 21 21 21 22 21 21 21 21 21 21 21 20 20 20 20 19 18 18 17 16 16 15 12 12 12 14 15 15 15
10 11 13 15 16 16 17 19 19 20 21 21 21 21 22 22 22 22 22 22 22 22 22 21 21 21 20 19 18 17 17 17 17 17 16 13 13 13 12 12 12 12 14
10 11 14 16 16 17 18 19 21 22 22 22 22 23 23 23 23 23 23 23 23 22 22 22 21 21 21 19 17 17 17 16 17 17 15 14 14 14 14 13 12 12 11
10 11 13 15 16 17 18 20 22 22 22 22 23 23 24 24 24 24 24 24 23 23 23 23 22 22 20 18 17 16 16 17 17 15 14 15 15 14 14 14 14 13 12
8 9 13 15 17 19 20 22 23 22 23 23 23 24 24 24 25 26 25 24 23 23 23 22 22 22 22 19 16 16 17 17 16 14 14 15 15 14 13 14 14 12 12
14 16 17 18 20 21 21 22 23 23 24 23 24 24 24 25 26 25 25 24 24 24 23 23 22 22 21 18 16 16 16 17 15 14 14 14 14 13 12 13 13 14 12
18 19 20 21 21 21 21 22 23 23 23 24 25 25 25 26 26 25 25 25 25 24 25 24 22 20 19 18 16 15 16 15 14 15 16 15 14 13 13 12 13 12 11
19 20 21 22 22 21 21 23 23 24 24 25 26 26 27 26 25 27 26 26 25 25 24 23 21 19 18 17 16 15 13 12 15 17 16 16 14 13 12 12 11 11 10
19 20 22 23 23 22 21 23 25 25 26 27 27 27 27 26 27 26 26 24 25 24 23 21 21 20 19 18 16 15 13 13 16 16 16 15 14 13 12 12 11 11 11
20 21 23 23 24 23 22 24 25 26 27 27 27 27 27 26 26 24 24 24 23 23 21 21 21 20 19 18 16 16 15 15 16 17 19 17 15 15 14 13 12 11 11
20 21 22 23 24 24 26 26 27 27 27 27 27 26 26 26 25 25 24 23 21 20 20 20 20 20 20 18 16 15 15 16 17 19 20 19 18 18 17 16 15 14 12
20 21 22 23 25 26 27 27 28 27 27 27 27 27 27 26 26 25 23 23 21 19 19 18 18 18 17 15 15 14 14 15 16 21 22 21 20 19 19 19 18 17 17